OBJECT E, 57170

Orbit data source: Space-Track

You're viewing an Uncataloged Satellite

Recently launched and/or uncataloged satellites may have evolving metadata. Metadata may include but not limited to: Owner, Maufacturer, Bus, Motor, and Mission.

OBJECT E, 57170 is a satellite in SSO that was launched on Tue, 27 Jun 2023 UTC via a SOYUZ-2-1B launch vehicle from the Vostochny Cosmodrome (VOSTO). Unknown objects in Earth's orbit typically refer to objects detected orbiting the Earth but have not yet been identified or cataloged. These objects could be anything from previously untracked satellites, spent rocket stages, debris from satellite collisions, or even natural meteoroids temporarily captured by Earth's gravity.

Loading next visibility...
Identifier
57170, 2023-091E
Orbit
SSO
Country
Flag of TBDTBD
Related business
None
Manufacturer
Unknown
Mission
Operational Commercial Communications
Bus & Motor
Unknown
Mass
Unknown
Launch date (UTC)
2023-06-27 (3 years ago)
Launch vehicle
SOYUZ-2-1B
Launch site
Vostochny Cosmodrome (VOSTO)
Object type
Unknown
Shape & HBR
Box + 2 Pan, 1.5 m
Radar Cross Section
1.055 m², Medium (>0.1 m² and < 1m²)

Expand to show TLE details & history
Last TLE update: 21 hours ago

TLE from 21 hours ago
0 OBJECT E
1 57170U 23091E   26207.63494700  .00008485  00000-0  34506-3 0  9991
2 57170  97.5099 269.3460 0007321 322.3788  37.6936 15.24764069170171
Epoch: 2026-07-26T15:14Z
TLE epoch observation values (Epoch: 2026-07-26T15:14:19.420Z)
Latitude
-0.00009°
Longitude
96.43504°
Altitude
490.609 km
Speed
7.622 km/s
True Right ascension
17h 57m 23s
True Declination
0° 00' 00"
Sunlit
Object was in full shadow at epoch
Visualization orbit readout
Latitude
Unknown
Longitude
Unknown
Altitude
Unknown
Speed
Unknown
Apparent Right ascension
Unknown
Apparent Declination
Unknown
Sunlit
N/A
Visualization observer readout
Local Sidereal Time
01:10:57
Azimuth
Unknown
Elevation
Unknown
Doppler factor
Unknown
Orbital elements
Apogee altitude
493.485 km
Perigee altitude
483.431 km
Semi-major axis
6,866.595 km
Eccentricity
0.00073
Inclination
97.5099°
RAAN
269.346°
Arg. of periapsis
322.3788°
True anomaly
37.74493°
Mean anomaly
37.6936°
Eccentric anomaly
37.71926°
Mean motion
3.81444 °/min
Orbital period
94.38 mins
BSTAR
0.00034506
Loading maneuver chart data...
Computing Atmospheric mass density...
Loading historical data...
Loading historical data...
Loading historical data...
Loading historical data...
Loading historical data...
Loading historical data...
Loading historical data...

Documentation

Showing up to 5 results
|